Time,TemperatureF,DewpointF,PressureIn,WindDirection,WindDirectionDegrees,WindSpeedMPH,WindSpeedGustMPH,Humidity,HourlyPrecipIn,Conditions,Clouds,dailyrainin,SoftwareType,DateUTC
2013-08-04 00:05:00,78.4,75.6,30.05,WSW,243,0.0,0.0,91,0.00,,,0.00,meteohub,2013-08-04 05:05:00,
2013-08-04 00:10:00,78.4,75.6,30.04,WSW,251,0.0,0.0,91,0.00,,,0.00,meteohub,2013-08-04 05:10:00,
2013-08-04 00:15:00,78.4,75.6,30.04,WSW,250,0.0,0.0,91,0.00,,,0.00,meteohub,2013-08-04 05:15:00,
2013-08-04 00:20:00,78.4,75.6,30.04,West,267,0.0,0.0,91,0.00,,,0.00,meteohub,2013-08-04 05:20:00,
2013-08-04 00:25:00,78.4,75.6,30.04,WSW,247,0.0,0.0,91,0.00,,,0.00,meteohub,2013-08-04 05:25:00,
2013-08-04 00:30:00,78.4,75.6,30.04,WSW,247,0.0,0.0,91,0.00,,,0.00,meteohub,2013-08-04 05:30:00,
2013-08-04 00:35:00,78.4,75.6,30.04,WSW,247,0.0,0.0,91,0.00,,,0.00,meteohub,2013-08-04 05:35:00,
2013-08-04 00:41:00,78.4,75.6,30.04,WSW,247,0.0,0.0,91,0.00,,,0.00,meteohub,2013-08-04 05:41:00,
2013-08-04 00:45:00,78.4,75.6,30.04,WSW,253,0.0,0.0,91,0.00,,,0.00,meteohub,2013-08-04 05:45:00,
2013-08-04 00:51:00,78.4,75.6,30.04,WSW,253,0.0,0.0,91,0.00,,,0.00,meteohub,2013-08-04 05:51:00,
2013-08-04 00:56:00,78.3,75.4,30.04,WSW,253,0.0,0.0,91,0.00,,,0.00,meteohub,2013-08-04 05:56:00,
2013-08-04 01:01:00,78.3,75.4,30.04,WSW,253,0.0,0.0,91,0.00,,,0.00,meteohub,2013-08-04 06:01:00,
2013-08-04 01:06:00,78.3,75.7,30.04,WSW,253,0.0,0.0,92,0.00,,,0.00,meteohub,2013-08-04 06:06:00,
2013-08-04 01:12:00,78.1,75.6,30.04,WSW,253,0.0,0.0,92,0.00,,,0.00,meteohub,2013-08-04 06:12:00,
2013-08-04 01:17:00,78.1,75.6,30.04,WSW,253,0.0,0.0,92,0.00,,,0.00,meteohub,2013-08-04 06:17:00,
2013-08-04 01:22:00,77.9,75.4,30.04,WSW,253,0.0,0.0,92,0.00,,,0.00,meteohub,2013-08-04 06:22:00,
2013-08-04 01:27:00,77.7,75.2,30.03,WSW,253,0.0,0.0,92,0.00,,,0.00,meteohub,2013-08-04 06:27:00,
2013-08-04 01:32:00,77.5,75.0,30.03,WSW,253,0.0,0.0,92,0.00,,,0.00,meteohub,2013-08-04 06:32:00,
2013-08-04 01:37:00,77.4,74.8,30.03,WSW,253,0.0,0.0,92,0.00,,,0.00,meteohub,2013-08-04 06:37:00,
2013-08-04 01:42:00,77.4,75.2,30.03,WSW,253,0.0,0.0,93,0.00,,,0.00,meteohub,2013-08-04 06:42:00,
2013-08-04 01:47:00,77.2,75.0,30.03,WSW,253,0.0,0.0,93,0.00,,,0.00,meteohub,2013-08-04 06:47:00,
2013-08-04 01:53:00,77.2,75.0,30.03,WSW,253,0.0,0.0,93,0.00,,,0.00,meteohub,2013-08-04 06:53:00,
2013-08-04 01:58:00,77.2,75.0,30.03,WSW,253,0.0,0.0,93,0.00,,,0.00,meteohub,2013-08-04 06:58:00,
2013-08-04 02:03:00,77.0,74.8,30.03,WSW,253,0.0,0.0,93,0.00,,,0.00,meteohub,2013-08-04 07:03:00,
2013-08-04 02:08:00,76.8,74.7,30.03,West,276,0.0,0.0,93,0.00,,,0.00,meteohub,2013-08-04 07:08:00,
2013-08-04 02:14:00,76.8,74.7,30.03,West,276,0.0,0.0,93,0.00,,,0.00,meteohub,2013-08-04 07:14:00,
2013-08-04 02:19:00,76.8,74.7,30.03,West,276,0.0,0.0,93,0.00,,,0.00,meteohub,2013-08-04 07:19:00,
2013-08-04 02:24:00,76.6,74.5,30.02,West,276,0.0,0.0,93,0.00,,,0.00,meteohub,2013-08-04 07:24:00,
2013-08-04 02:29:00,76.6,74.8,30.02,West,276,0.0,0.0,94,0.00,,,0.00,meteohub,2013-08-04 07:29:00,
2013-08-04 02:35:00,76.6,74.8,30.02,West,276,0.0,0.0,94,0.00,,,0.00,meteohub,2013-08-04 07:35:00,
2013-08-04 02:39:00,76.5,74.7,30.02,West,276,0.0,0.0,94,0.00,,,0.00,meteohub,2013-08-04 07:39:00,
2013-08-04 02:45:00,76.5,74.7,30.02,West,276,0.0,0.0,94,0.00,,,0.00,meteohub,2013-08-04 07:45:00,
2013-08-04 02:50:00,76.5,74.7,30.02,West,276,0.0,0.0,94,0.00,,,0.00,meteohub,2013-08-04 07:50:00,
2013-08-04 02:55:00,76.3,74.5,30.02,West,276,0.0,0.0,94,0.00,,,0.00,meteohub,2013-08-04 07:55:00,
2013-08-04 03:00:00,76.3,74.5,30.02,West,276,0.0,0.0,94,0.00,,,0.00,meteohub,2013-08-04 08:00:00,
2013-08-04 03:05:00,76.3,74.5,30.02,West,276,0.0,0.0,94,0.00,,,0.00,meteohub,2013-08-04 08:05:00,
2013-08-04 03:11:00,76.3,74.5,30.02,West,276,0.0,0.0,94,0.00,,,0.00,meteohub,2013-08-04 08:11:00,
2013-08-04 03:16:00,76.1,74.3,30.02,West,276,0.0,0.0,94,0.00,,,0.00,meteohub,2013-08-04 08:16:00,
2013-08-04 03:21:00,76.1,74.3,30.03,West,276,0.0,0.0,94,0.00,,,0.00,meteohub,2013-08-04 08:21:00,
2013-08-04 03:27:00,75.9,74.1,30.02,West,276,0.0,0.0,94,0.00,,,0.00,meteohub,2013-08-04 08:27:00,
2013-08-04 03:32:00,75.9,74.1,30.02,West,276,0.0,0.0,94,0.00,,,0.00,meteohub,2013-08-04 08:32:00,
2013-08-04 03:37:00,75.9,74.1,30.02,West,276,0.0,0.0,94,0.00,,,0.00,meteohub,2013-08-04 08:37:00,
2013-08-04 03:42:00,76.1,74.3,30.02,West,276,0.0,0.0,94,0.00,,,0.00,meteohub,2013-08-04 08:42:00,
2013-08-04 03:48:00,75.9,74.1,30.02,West,276,0.0,0.0,94,0.00,,,0.00,meteohub,2013-08-04 08:48:00,
2013-08-04 03:53:00,76.1,74.5,30.02,West,276,0.0,0.0,95,0.00,,,0.00,meteohub,2013-08-04 08:53:00,
2013-08-04 03:58:00,75.9,74.3,30.02,West,276,0.0,0.0,95,0.00,,,0.00,meteohub,2013-08-04 08:58:00,
2013-08-04 04:04:00,75.9,74.3,30.02,West,276,0.0,0.0,95,0.00,,,0.00,meteohub,2013-08-04 09:04:00,
2013-08-04 04:09:00,75.9,74.3,30.02,West,276,0.0,0.0,95,0.00,,,0.00,meteohub,2013-08-04 09:09:00,
2013-08-04 04:14:00,75.9,74.3,30.02,West,276,0.0,0.0,95,0.00,,,0.00,meteohub,2013-08-04 09:14:00,
2013-08-04 04:19:00,75.9,74.3,30.02,West,276,0.0,0.0,95,0.00,,,0.00,meteohub,2013-08-04 09:19:00,
2013-08-04 04:25:00,75.7,74.1,30.02,West,276,0.0,0.0,95,0.00,,,0.00,meteohub,2013-08-04 09:25:00,
2013-08-04 04:30:00,75.7,74.1,30.02,West,276,0.0,0.0,95,0.00,,,0.00,meteohub,2013-08-04 09:30:00,
2013-08-04 04:35:00,75.7,74.1,30.02,West,276,0.0,0.0,95,0.00,,,0.00,meteohub,2013-08-04 09:35:00,
2013-08-04 04:40:00,75.7,74.1,30.02,West,276,0.0,0.0,95,0.00,,,0.00,meteohub,2013-08-04 09:40:00,
2013-08-04 04:45:00,75.7,74.1,30.03,West,276,0.0,0.0,95,0.00,,,0.00,meteohub,2013-08-04 09:45:00,
2013-08-04 04:50:00,75.6,73.9,30.02,West,276,0.0,0.0,95,0.00,,,0.00,meteohub,2013-08-04 09:50:00,
2013-08-04 04:56:00,75.6,73.9,30.03,West,276,0.0,0.0,95,0.00,,,0.00,meteohub,2013-08-04 09:56:00,
2013-08-04 05:01:00,75.6,73.9,30.03,West,276,0.0,0.0,95,0.00,,,0.00,meteohub,2013-08-04 10:01:00,
2013-08-04 05:06:00,75.6,73.9,30.03,West,276,0.0,0.0,95,0.00,,,0.00,meteohub,2013-08-04 10:06:00,
2013-08-04 05:11:00,75.4,73.8,30.03,West,276,0.0,0.0,95,0.00,,,0.00,meteohub,2013-08-04 10:11:00,
2013-08-04 05:16:00,75.4,73.8,30.03,West,276,0.0,0.0,95,0.00,,,0.00,meteohub,2013-08-04 10:16:00,
2013-08-04 05:21:00,75.4,73.8,30.03,West,276,0.0,0.0,95,0.00,,,0.00,meteohub,2013-08-04 10:21:00,
2013-08-04 05:26:00,75.2,73.6,30.03,West,276,0.0,0.0,95,0.00,,,0.00,meteohub,2013-08-04 10:26:00,
2013-08-04 05:32:00,75.2,73.6,30.02,West,276,0.0,0.0,95,0.00,,,0.00,meteohub,2013-08-04 10:32:00,
2013-08-04 05:37:00,75.0,73.4,30.02,West,276,0.0,0.0,95,0.00,,,0.00,meteohub,2013-08-04 10:37:00,
2013-08-04 05:42:00,75.0,73.4,30.02,West,276,0.0,0.0,95,0.00,,,0.00,meteohub,2013-08-04 10:42:00,
2013-08-04 05:47:00,75.0,73.4,30.02,West,276,0.0,0.0,95,0.00,,,0.00,meteohub,2013-08-04 10:47:00,
2013-08-04 05:52:00,75.2,73.6,30.02,West,276,0.0,0.0,95,0.00,,,0.00,meteohub,2013-08-04 10:52:00,
2013-08-04 05:57:00,75.2,73.6,30.02,West,276,0.0,0.0,95,0.00,,,0.00,meteohub,2013-08-04 10:57:00,
2013-08-04 06:02:00,75.0,73.4,30.02,ESE,102,0.0,0.0,95,0.00,,,0.00,meteohub,2013-08-04 11:02:00,
2013-08-04 06:07:00,75.0,73.4,30.03,ESE,102,0.0,0.0,95,0.00,,,0.00,meteohub,2013-08-04 11:07:00,
2013-08-04 06:13:00,75.0,73.4,30.02,ESE,102,0.0,0.0,95,0.00,,,0.00,meteohub,2013-08-04 11:13:00,
2013-08-04 06:18:00,75.0,73.4,30.03,ESE,102,0.0,0.0,95,0.00,,,0.00,meteohub,2013-08-04 11:18:00,
2013-08-04 06:23:00,75.0,73.4,30.03,ESE,102,0.0,0.0,95,0.00,,,0.00,meteohub,2013-08-04 11:23:00,
2013-08-04 06:28:00,75.0,73.4,30.03,ESE,102,0.0,0.0,95,0.00,,,0.00,meteohub,2013-08-04 11:28:00,
2013-08-04 06:33:00,75.0,73.4,30.04,ESE,102,0.0,0.0,95,0.00,,,0.00,meteohub,2013-08-04 11:33:00,
2013-08-04 06:39:00,75.2,73.6,30.04,ESE,102,0.0,0.0,95,0.00,,,0.00,meteohub,2013-08-04 11:39:00,
2013-08-04 06:44:00,75.2,73.6,30.04,ESE,102,0.0,0.0,95,0.00,,,0.00,meteohub,2013-08-04 11:44:00,
2013-08-04 06:49:00,75.2,73.6,30.04,ESE,102,0.0,0.0,95,0.00,,,0.00,meteohub,2013-08-04 11:49:00,
2013-08-04 06:55:00,75.2,73.6,30.04,ESE,102,0.0,0.0,95,0.00,,,0.00,meteohub,2013-08-04 11:55:00,
2013-08-04 07:00:00,75.2,73.6,30.04,ESE,102,0.0,0.0,95,0.00,,,0.00,meteohub,2013-08-04 12:00:00,
2013-08-04 07:05:00,75.2,73.6,30.04,ESE,102,0.0,0.0,95,0.00,,,0.00,meteohub,2013-08-04 12:05:00,
2013-08-04 07:10:00,75.4,73.8,30.04,ESE,102,0.0,0.0,95,0.00,,,0.00,meteohub,2013-08-04 12:10:00,
2013-08-04 07:15:00,75.4,73.8,30.04,ESE,102,0.0,0.0,95,0.00,,,0.00,meteohub,2013-08-04 12:15:00,
2013-08-04 07:21:00,75.6,73.9,30.05,ESE,102,0.0,0.0,95,0.00,,,0.00,meteohub,2013-08-04 12:21:00,
2013-08-04 07:26:00,75.6,73.9,30.05,West,269,0.0,0.0,95,0.00,,,0.00,meteohub,2013-08-04 12:26:00,
2013-08-04 07:31:00,75.7,74.1,30.05,West,270,0.0,0.0,95,0.00,,,0.00,meteohub,2013-08-04 12:31:00,
2013-08-04 07:36:00,75.9,74.3,30.05,West,280,0.0,0.0,95,0.00,,,0.00,meteohub,2013-08-04 12:36:00,
2013-08-04 07:42:00,76.3,74.7,30.05,WNW,284,0.0,0.0,95,0.00,,,0.00,meteohub,2013-08-04 12:42:00,
2013-08-04 07:47:00,76.5,74.8,30.05,WNW,286,0.0,0.0,95,0.00,,,0.00,meteohub,2013-08-04 12:47:00,
2013-08-04 07:52:00,76.6,75.0,30.06,West,274,0.0,0.0,95,0.00,,,0.00,meteohub,2013-08-04 12:52:00,
2013-08-04 07:57:00,76.6,75.0,30.06,WNW,287,0.0,0.0,95,0.00,,,0.00,meteohub,2013-08-04 12:57:00,
2013-08-04 08:02:00,76.8,75.2,30.06,West,278,0.0,0.0,95,0.00,,,0.00,meteohub,2013-08-04 13:02:00,
2013-08-04 08:07:00,77.2,75.4,30.06,West,263,0.0,0.0,94,0.00,,,0.00,meteohub,2013-08-04 13:07:00,
2013-08-04 08:12:00,77.4,75.6,30.06,WSW,256,0.0,0.0,94,0.00,,,0.00,meteohub,2013-08-04 13:12:00,
2013-08-04 08:18:00,77.7,75.9,30.06,West,264,0.0,0.0,94,0.00,,,0.00,meteohub,2013-08-04 13:18:00,
2013-08-04 08:23:00,78.1,75.9,30.06,WNW,286,0.0,0.0,93,0.00,,,0.00,meteohub,2013-08-04 13:23:00,
2013-08-04 08:28:00,78.4,75.9,30.06,WNW,283,0.0,0.0,92,0.00,,,0.00,meteohub,2013-08-04 13:28:00,
2013-08-04 08:33:00,78.8,76.6,30.06,West,267,2.0,0.0,93,0.00,,,0.00,meteohub,2013-08-04 13:33:00,
2013-08-04 08:38:00,79.2,76.6,30.06,West,274,3.0,6.0,92,0.00,,,0.00,meteohub,2013-08-04 13:38:00,
2013-08-04 08:43:00,79.5,77.0,30.06,WNW,287,0.0,6.0,92,0.00,,,0.00,meteohub,2013-08-04 13:43:00,
2013-08-04 08:49:00,80.1,77.2,30.06,West,276,3.0,6.0,91,0.00,,,0.00,meteohub,2013-08-04 13:49:00,
2013-08-04 08:54:00,80.6,77.0,30.06,WNW,284,2.0,4.0,89,0.00,,,0.00,meteohub,2013-08-04 13:54:00,
2013-08-04 08:59:00,81.1,77.5,30.05,West,273,4.0,6.0,89,0.00,,,0.00,meteohub,2013-08-04 13:59:00,
2013-08-04 09:04:00,81.9,77.5,30.05,West,274,4.0,6.0,87,0.00,,,0.00,meteohub,2013-08-04 14:04:00,
2013-08-04 09:09:00,82.4,78.1,30.06,West,278,1.0,6.0,87,0.00,,,0.00,meteohub,2013-08-04 14:09:00,
2013-08-04 09:14:00,82.9,77.9,30.05,NW,314,1.0,6.0,85,0.00,,,0.00,meteohub,2013-08-04 14:14:00,
2013-08-04 09:20:00,83.3,77.5,30.05,West,278,4.0,7.0,83,0.00,,,0.00,meteohub,2013-08-04 14:20:00,
2013-08-04 09:25:00,83.7,77.5,30.05,WSW,258,5.0,8.0,82,0.00,,,0.00,meteohub,2013-08-04 14:25:00,
2013-08-04 09:30:00,83.8,77.4,30.05,WSW,252,5.0,8.0,81,0.00,,,0.00,meteohub,2013-08-04 14:30:00,
2013-08-04 09:35:00,84.2,78.1,30.05,WNW,285,4.0,10.0,82,0.00,,,0.00,meteohub,2013-08-04 14:35:00,
2013-08-04 09:40:00,84.4,77.9,30.05,West,276,6.0,10.0,81,0.00,,,0.00,meteohub,2013-08-04 14:40:00,
2013-08-04 09:45:00,84.6,78.1,30.05,West,268,5.0,9.0,81,0.00,,,0.00,meteohub,2013-08-04 14:45:00,
2013-08-04 09:50:00,84.7,77.9,30.05,WSW,258,6.0,9.0,80,0.00,,,0.00,meteohub,2013-08-04 14:50:00,
2013-08-04 09:55:00,84.9,78.4,30.05,WNW,291,6.0,12.0,81,0.00,,,0.00,meteohub,2013-08-04 14:55:00,
2013-08-04 10:01:00,85.5,77.7,30.05,WNW,289,7.0,12.0,78,0.00,,,0.00,meteohub,2013-08-04 15:01:00,
2013-08-04 10:06:00,85.5,77.7,30.05,West,272,7.0,12.0,78,0.00,,,0.00,meteohub,2013-08-04 15:06:00,
2013-08-04 10:12:00,85.6,78.4,30.05,WNW,283,6.0,11.0,79,0.00,,,0.00,meteohub,2013-08-04 15:12:00,
2013-08-04 10:17:00,85.8,78.6,30.05,SW,236,1.0,11.0,79,0.00,,,0.00,meteohub,2013-08-04 15:17:00,
2013-08-04 10:22:00,86.4,79.0,30.06,WNW,284,0.0,10.0,79,0.00,,,0.00,meteohub,2013-08-04 15:22:00,
2013-08-04 10:27:00,86.7,78.6,30.06,West,270,4.0,10.0,77,0.00,,,0.00,meteohub,2013-08-04 15:27:00,
2013-08-04 10:32:00,86.5,78.1,30.06,West,268,3.0,7.0,76,0.00,,,0.00,meteohub,2013-08-04 15:32:00,
2013-08-04 10:37:00,86.5,78.1,30.06,West,277,3.0,10.0,76,0.00,,,0.00,meteohub,2013-08-04 15:37:00,
2013-08-04 10:42:00,87.1,77.7,30.06,West,265,7.0,10.0,74,0.00,,,0.00,meteohub,2013-08-04 15:42:00,
2013-08-04 10:47:00,86.9,77.5,30.06,WNW,288,5.0,10.0,74,0.00,,,0.00,meteohub,2013-08-04 15:47:00,
2013-08-04 10:52:00,87.1,77.7,30.06,West,271,3.0,11.0,74,0.00,,,0.00,meteohub,2013-08-04 15:52:00,
2013-08-04 10:57:00,87.4,78.6,30.06,West,276,2.0,11.0,75,0.00,,,0.00,meteohub,2013-08-04 15:57:00,
2013-08-04 11:02:00,87.6,78.3,30.06,WNW,297,2.0,11.0,74,0.00,,,0.00,meteohub,2013-08-04 16:02:00,
2013-08-04 11:08:00,87.8,77.7,30.05,WNW,294,1.0,9.0,72,0.00,,,0.00,meteohub,2013-08-04 16:08:00,
2013-08-04 11:13:00,88.0,77.4,30.05,West,275,6.0,11.0,71,0.00,,,0.00,meteohub,2013-08-04 16:13:00,
2013-08-04 11:18:00,88.0,78.6,30.05,West,272,1.0,11.0,74,0.00,,,0.00,meteohub,2013-08-04 16:18:00,
2013-08-04 11:23:00,88.2,79.7,30.05,WNW,296,3.0,11.0,76,0.00,,,0.00,meteohub,2013-08-04 16:23:00,
2013-08-04 11:28:00,88.2,77.9,30.04,WSW,257,6.0,8.0,72,0.00,,,0.00,meteohub,2013-08-04 16:28:00,
2013-08-04 11:33:00,87.8,77.7,30.04,WNW,291,3.0,7.0,72,0.00,,,0.00,meteohub,2013-08-04 16:33:00,
2013-08-04 11:39:00,87.4,77.4,30.04,WNW,283,4.0,10.0,72,0.00,,,0.00,meteohub,2013-08-04 16:39:00,
2013-08-04 11:44:00,87.4,77.7,30.04,WNW,301,2.0,10.0,73,0.00,,,0.00,meteohub,2013-08-04 16:44:00,
2013-08-04 11:50:00,87.4,77.7,30.04,WNW,289,6.0,8.0,73,0.00,,,0.00,meteohub,2013-08-04 16:50:00,
2013-08-04 11:55:00,87.4,78.1,30.04,WNW,297,1.0,8.0,74,0.00,,,0.00,meteohub,2013-08-04 16:55:00,
2013-08-04 12:00:00,87.3,78.8,30.04,West,269,0.0,8.0,76,0.00,,,0.00,meteohub,2013-08-04 17:00:00,
2013-08-04 12:05:00,87.8,79.7,30.04,WSW,258,4.0,8.0,77,0.00,,,0.00,meteohub,2013-08-04 17:05:00,
2013-08-04 12:10:00,88.5,79.2,30.04,WNW,287,5.0,6.0,74,0.00,,,0.00,meteohub,2013-08-04 17:10:00,
2013-08-04 12:16:00,88.7,78.4,30.04,West,276,0.0,9.0,72,0.00,,,0.00,meteohub,2013-08-04 17:16:00,
2013-08-04 12:21:00,88.5,77.5,30.04,WNW,291,8.0,9.0,70,0.00,,,0.00,meteohub,2013-08-04 17:21:00,
2013-08-04 12:26:00,88.7,79.0,30.04,WNW,289,2.0,12.0,73,0.00,,,0.00,meteohub,2013-08-04 17:26:00,
2013-08-04 12:32:00,89.1,78.8,30.03,WSW,253,2.0,12.0,72,0.00,,,0.00,meteohub,2013-08-04 17:32:00,
2013-08-04 12:37:00,89.1,79.3,30.03,WNW,282,3.0,9.0,73,0.00,,,0.00,meteohub,2013-08-04 17:37:00,
2013-08-04 12:42:00,88.9,77.4,30.03,West,262,4.0,7.0,69,0.00,,,0.00,meteohub,2013-08-04 17:42:00,
2013-08-04 12:47:00,89.2,78.6,30.02,WNW,293,2.0,8.0,71,0.00,,,0.00,meteohub,2013-08-04 17:47:00,
2013-08-04 12:52:00,89.4,77.5,30.02,WSW,256,3.0,8.0,68,0.00,,,0.00,meteohub,2013-08-04 17:52:00,
2013-08-04 12:57:00,89.2,77.7,30.02,West,266,6.0,8.0,69,0.00,,,0.00,meteohub,2013-08-04 17:57:00,
2013-08-04 13:02:00,89.2,77.4,30.02,West,274,8.0,9.0,68,0.00,,,0.00,meteohub,2013-08-04 18:02:00,
2013-08-04 13:07:00,89.8,78.3,30.02,West,266,5.0,12.0,69,0.00,,,0.00,meteohub,2013-08-04 18:07:00,
2013-08-04 13:12:00,90.0,77.9,30.02,NNE,13,0.0,12.0,68,0.00,,,0.00,meteohub,2013-08-04 18:12:00,
2013-08-04 13:17:00,90.3,78.8,30.02,West,274,3.0,12.0,69,0.00,,,0.00,meteohub,2013-08-04 18:17:00,
2013-08-04 13:22:00,90.3,78.3,30.01,West,266,2.0,9.0,68,0.00,,,0.00,meteohub,2013-08-04 18:22:00,
2013-08-04 13:28:00,90.7,79.5,30.01,WNW,297,2.0,8.0,70,0.00,,,0.00,meteohub,2013-08-04 18:28:00,
2013-08-04 13:33:00,90.7,77.7,30.01,WNW,290,2.0,7.0,66,0.00,,,0.00,meteohub,2013-08-04 18:33:00,
2013-08-04 13:38:00,90.3,77.9,30.00,West,262,2.0,7.0,67,0.00,,,0.00,meteohub,2013-08-04 18:38:00,
2013-08-04 13:43:00,90.5,78.1,30.00,WNW,283,4.0,6.0,67,0.00,,,0.00,meteohub,2013-08-04 18:43:00,
2013-08-04 13:48:00,90.1,78.1,30.00,WNW,289,0.0,7.0,68,0.00,,,0.00,meteohub,2013-08-04 18:48:00,
2013-08-04 13:54:00,90.1,78.1,30.00,West,266,6.0,11.0,68,0.00,,,0.00,meteohub,2013-08-04 18:54:00,
2013-08-04 13:59:00,90.7,78.3,30.00,West,275,2.0,11.0,67,0.00,,,0.00,meteohub,2013-08-04 18:59:00,
2013-08-04 14:04:00,90.7,78.6,29.99,WNW,291,3.0,7.0,68,0.00,,,0.00,meteohub,2013-08-04 19:04:00,
2013-08-04 14:09:00,90.5,78.4,29.99,WSW,256,5.0,10.0,68,0.00,,,0.00,meteohub,2013-08-04 19:09:00,
2013-08-04 14:15:00,90.7,76.3,29.99,West,276,3.0,10.0,63,0.00,,,0.00,meteohub,2013-08-04 19:15:00,
2013-08-04 14:20:00,90.9,77.0,29.98,WNW,287,4.0,10.0,64,0.00,,,0.00,meteohub,2013-08-04 19:20:00,
2013-08-04 14:25:00,91.2,77.7,29.98,NW,306,1.0,9.0,65,0.00,,,0.00,meteohub,2013-08-04 19:25:00,
2013-08-04 14:30:00,91.8,78.8,29.98,NW,305,1.0,8.0,66,0.00,,,0.00,meteohub,2013-08-04 19:30:00,
2013-08-04 14:36:00,91.9,79.0,29.98,NE,43,2.0,8.0,66,0.00,,,0.00,meteohub,2013-08-04 19:36:00,
2013-08-04 14:41:00,91.8,77.9,29.98,WNW,287,5.0,5.0,64,0.00,,,0.00,meteohub,2013-08-04 19:41:00,
2013-08-04 14:46:00,91.8,76.8,29.98,West,276,6.0,9.0,62,0.00,,,0.00,meteohub,2013-08-04 19:46:00,
2013-08-04 14:52:00,91.6,77.2,29.97,WSW,258,2.0,12.0,63,0.00,,,0.00,meteohub,2013-08-04 19:52:00,
2013-08-04 14:56:00,91.9,77.0,29.97,West,266,3.0,12.0,62,0.00,,,0.00,meteohub,2013-08-04 19:56:00,
2013-08-04 15:02:00,92.1,77.2,29.97,West,266,1.0,12.0,62,0.00,,,0.00,meteohub,2013-08-04 20:02:00,
2013-08-04 15:06:00,92.1,76.3,29.97,NW,318,4.0,9.0,60,0.00,,,0.00,meteohub,2013-08-04 20:06:00,
2013-08-04 15:11:00,91.9,76.6,29.97,WNW,293,4.0,8.0,61,0.00,,,0.00,meteohub,2013-08-04 20:11:00,
2013-08-04 15:16:00,91.8,76.5,29.97,West,276,2.0,8.0,61,0.00,,,0.00,meteohub,2013-08-04 20:16:00,
2013-08-04 15:22:00,92.1,77.2,29.96,NW,318,1.0,8.0,62,0.00,,,0.00,meteohub,2013-08-04 20:22:00,
2013-08-04 15:27:00,91.8,76.8,29.96,WNW,282,5.0,8.0,62,0.00,,,0.00,meteohub,2013-08-04 20:27:00,
2013-08-04 15:33:00,91.8,77.4,29.96,West,280,6.0,9.0,63,0.00,,,0.00,meteohub,2013-08-04 20:33:00,
2013-08-04 15:38:00,91.8,76.8,29.96,West,271,3.0,10.0,62,0.00,,,0.00,meteohub,2013-08-04 20:38:00,
2013-08-04 15:43:00,91.9,78.1,29.96,NW,317,1.0,10.0,64,0.00,,,0.00,meteohub,2013-08-04 20:43:00,
2013-08-04 15:48:00,92.7,77.7,29.96,WNW,296,2.0,9.0,62,0.00,,,0.00,meteohub,2013-08-04 20:48:00,
2013-08-04 15:54:00,92.7,77.7,29.96,West,276,4.0,9.0,62,0.00,,,0.00,meteohub,2013-08-04 20:54:00,
2013-08-04 15:59:00,92.8,78.8,29.96,WNW,302,0.0,6.0,64,0.00,,,0.00,meteohub,2013-08-04 20:59:00,
2013-08-04 16:04:00,93.0,78.1,29.96,WSW,258,2.0,7.0,62,0.00,,,0.00,meteohub,2013-08-04 21:04:00,
2013-08-04 16:09:00,92.5,78.1,29.96,West,281,4.0,7.0,63,0.00,,,0.00,meteohub,2013-08-04 21:09:00,
2013-08-04 16:15:00,91.6,76.6,29.96,West,277,3.0,7.0,62,0.00,,,0.00,meteohub,2013-08-04 21:15:00,
2013-08-04 16:20:00,91.4,77.9,29.96,WNW,283,2.0,8.0,65,0.00,,,0.00,meteohub,2013-08-04 21:20:00,
2013-08-04 16:25:00,91.9,78.1,29.96,SW,235,1.0,8.0,64,0.00,,,0.00,meteohub,2013-08-04 21:25:00,
2013-08-04 16:31:00,92.1,78.6,29.96,WNW,293,1.0,7.0,65,0.00,,,0.00,meteohub,2013-08-04 21:31:00,
2013-08-04 16:36:00,91.9,78.4,29.96,WNW,293,0.0,6.0,65,0.00,,,0.00,meteohub,2013-08-04 21:36:00,
2013-08-04 16:41:00,92.1,79.5,29.96,WNW,293,0.0,4.0,67,0.00,,,0.00,meteohub,2013-08-04 21:41:00,
2013-08-04 16:46:00,91.9,78.4,29.95,West,270,1.0,3.0,65,0.00,,,0.00,meteohub,2013-08-04 21:46:00,
2013-08-04 16:51:00,91.2,78.3,29.95,West,270,0.0,2.0,66,0.00,,,0.00,meteohub,2013-08-04 21:51:00,
2013-08-04 16:52:00,91.2,79.2,29.96,West,276,4.0,4.0,68,0.00,,,0.00,meteohub,2013-08-04 21:52:00,
2013-08-04 16:57:00,89.6,78.4,29.96,WNW,296,3.0,8.0,70,0.00,,,0.00,meteohub,2013-08-04 21:57:00,
2013-08-04 17:02:00,87.6,77.0,29.96,West,276,10.0,10.0,71,0.00,,,0.00,meteohub,2013-08-04 22:02:00,
2013-08-04 17:07:00,83.1,74.8,29.96,West,275,5.0,19.0,76,0.00,,,0.00,meteohub,2013-08-04 22:07:00,
2013-08-04 17:13:00,80.4,74.5,29.96,WSW,239,4.0,19.0,82,0.00,,,0.00,meteohub,2013-08-04 22:13:00,
2013-08-04 17:18:00,79.3,74.1,29.97,WNW,290,2.0,19.0,84,0.00,,,0.00,meteohub,2013-08-04 22:18:00,
2013-08-04 17:24:00,79.2,73.6,29.96,WNW,296,0.0,15.0,83,0.00,,,0.00,meteohub,2013-08-04 22:24:00,
2013-08-04 17:29:00,79.3,74.1,29.96,WNW,295,2.0,7.0,84,0.00,,,0.00,meteohub,2013-08-04 22:29:00,
2013-08-04 17:34:00,79.5,74.3,29.97,SSW,193,1.0,5.0,84,0.00,,,0.00,meteohub,2013-08-04 22:34:00,
2013-08-04 17:39:00,79.3,74.8,29.98,West,270,4.0,4.0,86,0.00,,,0.00,meteohub,2013-08-04 22:39:00,
2013-08-04 17:44:00,79.2,75.0,29.97,WSW,249,2.0,4.0,87,0.00,,,0.00,meteohub,2013-08-04 22:44:00,
2013-08-04 17:50:00,79.3,75.2,29.97,West,264,2.0,7.0,87,0.00,,,0.00,meteohub,2013-08-04 22:50:00,
2013-08-04 17:55:00,79.3,75.6,29.98,West,270,5.0,7.0,88,0.00,,,0.00,meteohub,2013-08-04 22:55:00,
2013-08-04 18:00:00,79.5,75.6,29.98,West,276,2.0,7.0,88,0.00,,,0.00,meteohub,2013-08-04 23:00:00,
2013-08-04 18:05:00,79.9,75.9,29.97,West,262,1.0,7.0,88,0.00,,,0.00,meteohub,2013-08-04 23:05:00,
2013-08-04 18:10:00,80.2,76.1,29.98,WSW,238,1.0,5.0,87,0.00,,,0.00,meteohub,2013-08-04 23:10:00,
2013-08-04 18:16:00,80.4,76.1,29.98,West,268,3.0,5.0,87,0.00,,,0.00,meteohub,2013-08-04 23:16:00,
2013-08-04 18:21:00,80.4,76.1,29.98,West,275,4.0,6.0,87,0.00,,,0.00,meteohub,2013-08-04 23:21:00,
2013-08-04 18:26:00,80.6,76.3,29.98,WNW,293,2.0,6.0,87,0.00,,,0.00,meteohub,2013-08-04 23:26:00,
2013-08-04 18:32:00,81.0,76.5,29.97,West,262,3.0,6.0,86,0.00,,,0.00,meteohub,2013-08-04 23:32:00,
2013-08-04 18:37:00,80.8,75.9,29.97,West,259,1.0,6.0,85,0.00,,,0.00,meteohub,2013-08-04 23:37:00,
2013-08-04 18:42:00,80.6,76.1,29.97,West,274,1.0,4.0,86,0.00,,,0.00,meteohub,2013-08-04 23:42:00,
2013-08-04 18:47:00,80.6,76.1,29.97,West,272,2.0,4.0,86,0.00,,,0.00,meteohub,2013-08-04 23:47:00,
2013-08-04 18:52:00,80.8,75.9,29.96,WNW,286,1.0,3.0,85,0.00,,,0.00,meteohub,2013-08-04 23:52:00,
2013-08-04 18:57:00,80.8,75.9,29.96,West,269,1.0,3.0,85,0.00,,,0.00,meteohub,2013-08-04 23:57:00,
2013-08-04 19:02:00,80.8,76.3,29.96,WNW,283,0.0,4.0,86,0.00,,,0.00,meteohub,2013-08-05 00:02:00,
2013-08-04 19:08:00,80.4,75.9,29.96,WSW,249,0.0,4.0,86,0.00,,,0.00,meteohub,2013-08-05 00:08:00,
2013-08-04 19:13:00,80.2,75.7,29.96,WNW,283,1.0,3.0,86,0.00,,,0.00,meteohub,2013-08-05 00:13:00,
2013-08-04 19:18:00,80.1,75.6,29.96,WNW,283,0.0,3.0,86,0.00,,,0.00,meteohub,2013-08-05 00:18:00,
2013-08-04 19:23:00,79.9,75.7,29.96,WNW,283,2.0,3.0,87,0.00,,,0.00,meteohub,2013-08-05 00:23:00,
2013-08-04 19:28:00,79.5,75.6,29.97,WNW,283,0.0,3.0,88,0.00,,,0.00,meteohub,2013-08-05 00:28:00,
2013-08-04 19:34:00,79.3,75.6,29.97,WNW,283,0.0,3.0,88,0.00,,,0.00,meteohub,2013-08-05 00:34:00,
2013-08-04 19:39:00,79.3,75.7,29.98,WNW,283,0.0,3.0,89,0.00,,,0.00,meteohub,2013-08-05 00:39:00,
2013-08-04 19:44:00,79.3,75.7,29.98,WNW,283,0.0,2.0,89,0.00,,,0.00,meteohub,2013-08-05 00:44:00,
2013-08-04 19:49:00,79.0,75.4,29.98,WNW,283,0.0,0.0,89,0.00,,,0.00,meteohub,2013-08-05 00:49:00,
2013-08-04 19:54:00,79.0,75.4,29.98,WNW,283,0.0,1.0,89,0.00,,,0.00,meteohub,2013-08-05 00:54:00,
2013-08-04 20:00:00,78.8,75.2,29.98,WNW,283,0.0,1.0,89,0.00,,,0.00,meteohub,2013-08-05 01:00:00,
2013-08-04 20:05:00,78.6,75.4,29.99,WNW,283,0.0,1.0,90,0.00,,,0.00,meteohub,2013-08-05 01:05:00,
2013-08-04 20:10:00,78.6,75.4,29.99,WNW,283,0.0,2.0,90,0.00,,,0.00,meteohub,2013-08-05 01:10:00,
2013-08-04 20:16:00,78.6,75.4,29.99,WNW,283,0.0,2.0,90,0.00,,,0.00,meteohub,2013-08-05 01:16:00,
2013-08-04 20:21:00,78.6,75.4,29.99,WNW,283,0.0,2.0,90,0.00,,,0.00,meteohub,2013-08-05 01:21:00,
2013-08-04 20:26:00,78.4,75.2,29.99,WNW,283,0.0,1.0,90,0.00,,,0.00,meteohub,2013-08-05 01:26:00,
2013-08-04 20:32:00,78.4,75.2,30.00,WNW,283,0.0,0.0,90,0.00,,,0.00,meteohub,2013-08-05 01:32:00,
2013-08-04 20:36:00,78.3,75.4,30.00,WNW,283,0.0,0.0,91,0.00,,,0.00,meteohub,2013-08-05 01:36:00,
2013-08-04 20:42:00,78.3,75.4,30.01,WNW,283,0.0,1.0,91,0.00,,,0.00,meteohub,2013-08-05 01:42:00,
2013-08-04 20:47:00,78.3,75.4,30.01,WNW,283,0.0,1.0,91,0.00,,,0.00,meteohub,2013-08-05 01:47:00,
2013-08-04 20:52:00,78.3,75.4,30.01,WNW,283,0.0,2.0,91,0.00,,,0.00,meteohub,2013-08-05 01:52:00,
2013-08-04 20:58:00,78.3,75.4,30.01,WNW,283,0.0,2.0,91,0.00,,,0.00,meteohub,2013-08-05 01:58:00,
2013-08-04 21:03:00,78.3,75.4,30.02,WNW,283,0.0,2.0,91,0.00,,,0.00,meteohub,2013-08-05 02:03:00,
2013-08-04 21:08:00,78.3,75.4,30.02,WNW,283,0.0,1.0,91,0.00,,,0.00,meteohub,2013-08-05 02:08:00,
2013-08-04 21:13:00,78.1,75.2,30.02,WNW,283,1.0,1.0,91,0.00,,,0.00,meteohub,2013-08-05 02:13:00,
2013-08-04 21:18:00,78.1,75.6,30.02,WNW,283,0.0,1.0,92,0.00,,,0.00,meteohub,2013-08-05 02:18:00,
2013-08-04 21:24:00,77.9,75.4,30.02,WNW,283,0.0,1.0,92,0.00,,,0.00,meteohub,2013-08-05 02:24:00,
2013-08-04 21:29:00,77.7,75.2,30.02,WNW,283,0.0,1.0,92,0.00,,,0.00,meteohub,2013-08-05 02:29:00,
2013-08-04 21:34:00,77.7,75.2,30.02,WSW,242,0.0,2.0,92,0.00,,,0.00,meteohub,2013-08-05 02:34:00,
2013-08-04 21:39:00,77.5,75.0,30.02,SSW,192,0.0,2.0,92,0.00,,,0.00,meteohub,2013-08-05 02:39:00,
2013-08-04 21:44:00,77.4,74.8,30.02,SW,226,0.0,2.0,92,0.00,,,0.00,meteohub,2013-08-05 02:44:00,
2013-08-04 21:50:00,77.4,74.8,30.02,West,262,0.0,3.0,92,0.00,,,0.00,meteohub,2013-08-05 02:50:00,
2013-08-04 21:55:00,77.2,75.0,30.02,West,262,0.0,3.0,93,0.00,,,0.00,meteohub,2013-08-05 02:55:00,
2013-08-04 22:00:00,77.2,75.0,30.02,West,262,1.0,3.0,93,0.00,,,0.00,meteohub,2013-08-05 03:00:00,
2013-08-04 22:06:00,77.0,74.8,30.02,WSW,245,0.0,2.0,93,0.00,,,0.00,meteohub,2013-08-05 03:06:00,
2013-08-04 22:11:00,76.8,74.7,30.02,West,268,2.0,3.0,93,0.00,,,0.00,meteohub,2013-08-05 03:11:00,
2013-08-04 22:16:00,76.8,74.7,30.02,West,268,0.0,3.0,93,0.00,,,0.00,meteohub,2013-08-05 03:16:00,
2013-08-04 22:21:00,76.8,74.7,30.02,West,268,1.0,3.0,93,0.00,,,0.00,meteohub,2013-08-05 03:21:00,
2013-08-04 22:27:00,76.8,74.7,30.02,West,268,1.0,3.0,93,0.00,,,0.00,meteohub,2013-08-05 03:27:00,
2013-08-04 22:32:00,76.6,74.5,30.02,WNW,297,1.0,3.0,93,0.00,,,0.00,meteohub,2013-08-05 03:32:00,
2013-08-04 22:37:00,76.6,74.5,30.02,NW,314,0.0,3.0,93,0.00,,,0.00,meteohub,2013-08-05 03:37:00,
2013-08-04 22:41:00,76.6,74.8,30.03,NW,313,0.0,3.0,94,0.00,,,0.00,meteohub,2013-08-05 03:41:00,
2013-08-04 22:47:00,76.6,74.8,30.02,WNW,295,1.0,3.0,94,0.00,,,0.00,meteohub,2013-08-05 03:47:00,
2013-08-04 22:52:00,76.6,74.8,30.02,WNW,295,2.0,3.0,94,0.00,,,0.00,meteohub,2013-08-05 03:52:00,
2013-08-04 22:57:00,76.6,74.8,30.02,WNW,295,2.0,3.0,94,0.00,,,0.00,meteohub,2013-08-05 03:57:00,
2013-08-04 23:01:00,76.6,74.8,30.02,WNW,295,2.0,3.0,94,0.00,,,0.00,meteohub,2013-08-05 04:01:00,
2013-08-04 23:02:00,76.6,74.8,30.03,WNW,295,0.0,3.0,94,0.00,,,0.00,meteohub,2013-08-05 04:02:00,
2013-08-04 23:04:00,76.6,74.8,30.03,WNW,295,0.0,3.0,94,0.00,,,0.00,meteohub,2013-08-05 04:04:00,
2013-08-04 23:10:00,76.6,74.8,30.02,WNW,288,2.0,4.0,94,0.00,,,0.00,meteohub,2013-08-05 04:10:00,
2013-08-04 23:15:00,76.6,74.8,30.02,WNW,288,0.0,4.0,94,0.00,,,0.00,meteohub,2013-08-05 04:15:00,
2013-08-04 23:20:00,76.6,74.8,30.02,WNW,288,1.0,4.0,94,0.00,,,0.00,meteohub,2013-08-05 04:20:00,
2013-08-04 23:26:00,76.6,74.8,30.02,WNW,288,0.0,3.0,94,0.00,,,0.00,meteohub,2013-08-05 04:26:00,
2013-08-04 23:31:00,76.6,74.8,30.02,WSW,258,0.0,2.0,94,0.00,,,0.00,meteohub,2013-08-05 04:31:00,
2013-08-04 23:36:00,76.6,74.8,30.02,WSW,258,0.0,1.0,94,0.00,,,0.00,meteohub,2013-08-05 04:36:00,
2013-08-04 23:41:00,76.6,74.8,30.02,WSW,258,1.0,1.0,94,0.00,,,0.00,meteohub,2013-08-05 04:41:00,
2013-08-04 23:46:00,76.6,74.8,30.02,West,274,0.0,3.0,94,0.00,,,0.00,meteohub,2013-08-05 04:46:00,
2013-08-04 23:51:00,76.5,74.7,30.02,West,274,0.0,3.0,94,0.00,,,0.00,meteohub,2013-08-05 04:51:00,
2013-08-04 23:56:00,76.5,74.7,30.02,West,274,0.0,3.0,94,0.00,,,0.00,meteohub,2013-08-05 04:56:00,